This is the latest recevied weather packets stored in our database for station/object W8DRH-13. If no packets are shown the sender has not sent any weather packets the latest 10 day(s).
| Time | Temp. | Humidity | Pressure | Rain* | Wind** | Luminosity | Snow |
|---|---|---|---|---|---|---|---|
| 1778129866 | 6.11° C | 85% | 1011.6 hPa | 0 mm | - | 0 W/m² | - |
| 1778129562 | 6.11° C | 85% | 1011.6 hPa | 0 mm | - | 0 W/m² | - |
| 1778129260 | 5.56° C | 84% | 1011.5 hPa | 0 mm | - | 0 W/m² | - |
| 1778128956 | 6.11° C | 84% | 1011.7 hPa | 0 mm | - | 0 W/m² | - |
| 1778128652 | 6.11° C | 84% | 1011.6 hPa | 0 mm | - | 0 W/m² | - |
| 1778128350 | 6.11° C | 83% | 1011.4 hPa | 0 mm | - | 0 W/m² | - |
| 1778128045 | 6.67° C | 83% | 1011.7 hPa | 0 mm | - | 0 W/m² | - |
| 1778127741 | 6.67° C | 82% | 1011.5 hPa | 0 mm | - | 0 W/m² | - |
| 1778127438 | 7.22° C | 82% | 1011.6 hPa | 0 mm | - | 0 W/m² | - |
| 1778127135 | 7.22° C | 82% | 1011.5 hPa | 0 mm | - | 0 W/m² | - |
| 1778126833 | 7.22° C | 81% | 1011.6 hPa | 0 mm | - | 0 W/m² | - |
| 1778126528 | 7.22° C | 79% | 1011.6 hPa | 0 mm | - | 0 W/m² | - |
| 1778126224 | 7.22° C | 79% | 1011.6 hPa | 0 mm | - | 0 W/m² | - |
| 1778125920 | 7.78° C | 78% | 1011.5 hPa | 0 mm | - | 0 W/m² | - |
| 1778125617 | 7.78° C | 78% | 1011.6 hPa | 0 mm | - | 0 W/m² | - |
| 1778125315 | 7.78° C | 78% | 1011.4 hPa | 0 mm | - | 0 W/m² | - |
| 1778125013 | 7.78° C | 78% | 1011.5 hPa | 0 mm | - | 0 W/m² | - |
| 1778124710 | 7.78° C | 78% | 1011.8 hPa | 0 mm | - | 0 W/m² | - |
| 1778124407 | 7.78° C | 78% | 1011.8 hPa | 0 mm | - | 0 W/m² | - |
| 1778124103 | 7.78° C | 78% | 1011.7 hPa | 0 mm | - | 0 W/m² | - |
| 1778123800 | 7.78° C | 78% | 1011.9 hPa | 0 mm | - | 0 W/m² | - |
| 1778123496 | 7.78° C | 78% | 1012 hPa | 0 mm | - | 0 W/m² | - |
| 1778123193 | 7.78° C | 77% | 1011.9 hPa | 0 mm | - | 0 W/m² | - |
| 1778122891 | 7.78° C | 77% | 1012 hPa | 0 mm | - | 0 W/m² | - |
| 1778122588 | 7.78° C | 77% | 1012.1 hPa | 0 mm | - | 0 W/m² | - |
* Rain latest hour (hover to see other rain measurements)
** Current wind speed in m/s (hover to see current wind gust speed)